Regional Weather Roundup
Issued by NWS

Home | Current Version | Previous Version | Graphics & Text | Print | Product List | Glossary On
Versions: 1 2 3 4 5 6 7 8 9 10 11 12 13 14 15 16 17 18 19 20 21 22 23 24 25 26 27 28
000
ASUS45 KCYS 301010
RWRWY

WYOMING REGIONAL WEATHER ROUNDUP
NATIONAL WEATHER SERVICE CHEYENNE WY
400 AM MDT FRI SEP 30 2016

NOTE:  "FAIR" INDICATES FEW OR NO CLOUDS BELOW 12,000 FEET
WITH NO SIGNIFICANT WEATHER AND/OR OBSTRUCTIONS TO VISIBILITY.

WYZ001-301100-
YELLOWSTONE NATIONAL PARK

CITY           SKY/WX    TMP DP  RH WIND       PRES   REMARKS
LK YELLOWSTONE   N/A     36  36 100 CALM      30.35F
W YELLOWSTONE  NOT AVBL

$$
WYZ002>013-054>058-071-098>099-301100-
NORTHERN WYOMING

CITY           SKY/WX    TMP DP  RH WIND       PRES   REMARKS
JACKSON        CLOUDY    43  43 100 CALM      30.32S
CODY           FAIR      61  43  51 W10G18    30.15S
GREYBULL       FAIR      55  52  89 E5        30.11S
WORLAND        FAIR      53  48  83 S8        30.11F
SHERIDAN       FAIR      51  46  83 VRB5      30.05S
BUFFALO        FAIR      59  42  53 W6        30.11F
GILLETTE       FAIR      59  49  69 S13       30.08F
HULETT         FAIR      64  45  48 S6        30.12F
NEWCASTLE      FAIR      57  41  54 E12       30.16F

$$
WYZ014>020-022>026-101>103-301100-
CENTRAL WYOMING

CITY           SKY/WX    TMP DP  RH WIND       PRES   REMARKS
BIG PINEY      FAIR      39  37  92 E7        30.33F WCI  34
PINEDALE       FAIR      34  34 100 W6        30.34F WCI  29
DUBOIS         FAIR      43  39  87 NW12      30.29F
LANDER         FAIR      50  45  83 SW5       30.20F
RIVERTON       FAIR      50  46  86 W6        30.21S
CASPER         MOCLDY    60  49  66 SW20      30.20F
DOUGLAS        FAIR      51  44  77 SE5       30.20S

$$
WYZ021-027>030-104>119-301100-
SOUTHERN WYOMING

CITY           SKY/WX    TMP DP  RH WIND       PRES   REMARKS
EVANSTON       FAIR      49  41  74 SE6       30.33F
FORT BRIDGER   FAIR      53  42  66 SW10      30.35F
ROCK SPRINGS   CLOUDY    50  45  83 CALM      30.31F
DIXON          CLOUDY    57  46  67 S8        30.37F
RAWLINS        MOCLDY    54  47  77 S7        30.32F
SARATOGA       CLOUDY    50  45  81 SE3       30.35F
LARAMIE        CLOUDY    50  44  80 S8        30.33S
CHEYENNE       FAIR      55  43  63 N6        30.25F
TORRINGTON     FAIR      50  41  71 E8        30.18S
PINE BLUFFS    FAIR      46  39  76 E7        30.22F

$$




USA.gov is the U.S. government's official web portal to all federal, state and local government web resources and services.